Location: Firdgum
(53.2488°N, 5.5615°E)
Time: 09:29:39
(UTC+00:00)

YAOGAN 6 - Pass Details

Date: 08 December 2019
Orbit: 466 x 505 km, 97.0° (Epoch: 28 January)

Event Time Altitude Azimuth Distance (km) Brightness Sun altitude
Rises 06:13:04 0° 19° (NNE) 2,599 6.2 -11.8°
Reaches altitude 10° 06:15:16 10° 28° (NNE) 1,716 5.4 -11.5°
Maximum altitude 06:18:44 37° 97° (E) 803 4.4 -11.0°
Drops below altitude 10° 06:22:11 10° 166° (SSE) 1,714 5.9 -10.6°
Sets 06:24:22 0° 175° (S) 2,596 6.7 -10.3°
